Regional Weather Roundup
Issued by NWS Charleston, SC

Current Version | Previous Version | Graphics & Text | Print | Product List | Glossary On
Versions: 1 2 3 4 5 6 7 8 9 10 11 12 13 14 15 16 17 18 19 20 21 22 23 24 25 26 27 28 29 30 31 32 33 34 35 36 37 38 39 40 41 42 43 44 45 46 47 48 49 50
000
ASUS42 KCHS 010912
RWRCHS

REGIONAL WEATHER ROUNDUP
NATIONAL WEATHER SERVICE CHARLESTON SC
500 AM EDT SAT AUG 01 2015

NOTE: "FAIR" INDICATES FEW OR NO CLOUDS BELOW 12,000 FEET WITH NO
SIGNIFICANT WEATHER AND/OR OBSTRUCTIONS TO VISIBILITY.

NOT ALL STATIONS ARE QUALITY CONTROLLED BY THE NATIONAL
WEATHER SERVICE. USE DATA WITH CAUTION...ESPECIALLY
DEWPOINT OBSERVATIONS.

SCZ027-030-031-034>040-042>050-011000-
...SOUTHEAST SOUTH CAROLINA...

CITY           SKY/WX    TMP DP  RH WIND       PRES   REMARKS
N CHARLESTON   PTCLDY    77  73  87 CALM      29.89F
WATERFRONT PRK   N/A     81  77  88 VRB3      29.87S
MOUNT PLEASANT FAIR      77  77 100 CALM      29.89F FOG
JOHNS ISLAND   FAIR      79  77  94 CALM      29.89F
PINOPOLIS      NOT AVBL
MONCKS CORNER  FAIR      75  73  94 CALM      29.90S FOG
SUMMERVILLE    FAIR      73  73 100 CALM      29.91F
BEAUFORT MCAS  PTCLDY    77  75  93 W3        29.91S
BEAUFORT ARPT  FAIR      77  77 100 CALM      29.90F
HILTON HEAD IS CLEAR     77  75  94 W3        29.92S
WALTERBORO     SUNNY     75  73  94 CALM      29.92S
ALLENDALE      FAIR      75  73  94 CALM      29.91S

...SOUTHERN MIDLANDS AND PEE DEE...

CITY           SKY/WX    TMP DP  RH WIND       PRES   REMARKS
GEORGETOWN     NOT AVBL
KINGSTREE      NOT AVBL
ORANGEBURG     MOCLDY    75  72  90 CALM      29.91F
BARNWELL       FAIR      75  75 100 CALM      29.92F
AIKEN          FAIR      72  70  94 CALM      29.95F
MANNING        RAIN      73  72  94 CALM      29.90F
COLUMBIA       PTCLDY    77  71  82 CALM      29.90F
SUMTER         PTCLDY    76  71  86 CALM      29.89F
FLORENCE       CLEAR     74  71  91 CALM      29.90F
MYRTLE BEACH   MOCLDY    75  70  83 CALM      29.92S
N MYRTLE BEACH CLEAR     74  72  93 CALM      29.90S

$$

GAZ063-065-086>088-099>101-113>116-118-119-134>141-150-011000-
...SOUTHEAST GEORGIA...

CITY           SKY/WX    TMP DP  RH WIND       PRES   REMARKS
SAVANNAH ARPT  MOCLDY    75  73  93 W3        29.91F
HUNTER AAF     PTCLDY    74  74 100 W3        29.89F
FORT STEWART   NOT AVBL
STATESBORO     FOG       73  32  22 CALM      29.92F VSB 3/4
SYLVANIA       SUNNY     73  73 100 CALM      29.93S
CLAXTON        NOT AVBL

...CSRA...CENTRAL AND FAR SOUTHEAST GEORGIA...

CITY           SKY/WX    TMP DP  RH WIND       PRES   REMARKS
THOMSON        CLEAR     74  74 100 CALM      29.96S
AUGUSTA-BUSH   CLEAR     73  72  96 S5        29.90F
AUGUSTA-DANIEL CLEAR     79  72  79 CALM      29.92S
SWAINSBORO     FAIR     N/A N/A N/A CALM      29.93S
VIDALIA        MOCLDY    73  72  94 CALM      29.92F FOG
EASTMAN        FOG       74  74 100 CALM      29.94S VSB 1
HAZLEHURST     PTSUNNY   75  75 100 CALM      29.92R
ALMA           CLOUDY    75  73  93 S3        29.92S
WAYCROSS       FOG       77  77 100 CALM      29.92R VSB 1/2
JESUP          FOG       75  73  94 CALM      29.92S VSB 1/4
BAXLEY         CLOUDY    75  73  94 CALM      29.92S
BRUNSWICK      MOCLDY    73  72  94 CALM      29.93S
SAINT SIMONS   MOCLDY    77  75  93 SW6       29.92S

$$

SCZ027-028-034-036>038-045-046-048>050-GAZ119-141-011000-
...LAKE AND SUPPLEMENTAL COASTAL OBSERVATIONS...

STATION/POSITION TIME  TEMP    WIND        PRES    WAVE   SWELL
                       AIR SEA DIR/SP/G            HT/PER HT/PER/DIR
                 (UTC) (F)     (DEG/KT/KT) (MB)    (FT/S) (FT/S/D)
UPR LAKE MARION  NOT AVBL
WINYAH BAY       0745   77     280/  3     1012.0
LAKE MURRAY      0800   80      CALM  /  2 1012.5F
ACE BASIN NERRS  NOT AVBL
FORT PULASKI     0800   77 86  220/  5/  7 1013.4F
SAPELO ISLAND    0800   76        CALM     1013.0S

$$

ANZ835-935-AMZ111-154-330-350-352-354-370-450-454-472-011000-
...C-MAN AND BUOY OBSERVATIONS...

STATION/POSITION TIME  TEMP    WIND        PRES    WAVE   SWELL
                       AIR SEA DIR/SP/G            HT/PER HT/PER/DIR
                 (UTC) (F)     (DEG/KT/KT) (MB)    (FT/S) (FT/S/D)
BUOY 41004       0850   81 84  220/ 14/ 16 1011.2F   4/ 7   3/ 7
BUOY 41008       0850   81 83  220/ 14/ 16 1012.9F   2/ 5   2/120/ 7
FOLLY BEACH CMAN 0800   80     290/  2/  2 1012.6F
CAPERS NEARSHORE 0808   83     260/  8/ 10 1012.7F
FRIPP NEARSHORE  0800   82     250/ 10/ 14 1012.4F


STATION/POSITION TIME  TEMP    WIND        PRES    WAVE   SWELL
                       AIR SEA DIR/SP/G            HT/PER HT/PER/DIR
                 (UTC) (F)     (DEG/KT/KT) (MB)    (FT/S) (FT/S/D)
5E ST. MARYS GA  0821      84                N/A     3/ 7
FRYING PAN BUOY  0850   79 84  310/ 10/ 14 1013.1R   5/ 7   5/150/ 7
BUOY 41025       0850   81 85  120/  4/  6 1012.6F   4/ 8   5/180/ 8
CAPE LOOKOUT NC  0800   80     270/  3/  3 1011.9F
BUOY 41002       0850   80 81  250/ 25/ 33 1015.3F   7/ 7   2/ 50/12
BUOY 41010       0820   82 84  180/ 12/ 14 1015.7F
ST AUGUSTINE FL  0900   77 81  180/ 10/ 11 1014.2F


$$



USA.gov is the U.S. government's official web portal to all federal, state and local government web resources and services.